| time (UTC) | temp F | wind direction | speed knots | gust knots | rain 1hr in | rain 24hr in | rain mn in | humidity % | barometer mb |
| 20260503221734 | 66 | 130 | 0.0 | 3.5 | 0.00 | 0.00 | 0.00 | 40 | 1012.2 |
| 20260503221234 | 66 | 131 | 0.0 | 3.5 | 0.00 | 0.00 | 0.00 | 40 | 1012.2 |
| 20260503220734 | 66 | 131 | 0.0 | 3.5 | 0.00 | 0.00 | 0.00 | 40 | 1012.3 |
| 20260503215234 | 66 | 183 | 0.0 | 2.6 | 0.00 | 0.00 | 0.00 | 40 | 1012.4 |
| 20260503214734 | 66 | 183 | 0.0 | 2.6 | 0.00 | 0.00 | 0.00 | 40 | 1012.4 |
| 20260503214234 | 66 | 183 | 0.0 | 2.6 | 0.00 | 0.00 | 0.00 | 40 | 1012.4 |
| 20260503213733 | 66 | 183 | 0.0 | 2.6 | 0.00 | 0.00 | 0.00 | 40 | 1012.3 |
| 20260503213233 | 66 | 180 | 1.7 | 6.1 | 0.00 | 0.00 | 0.00 | 40 | 1012.3 |
| 20260503212734 | 66 | 185 | 0.0 | 6.1 | 0.00 | 0.00 | 0.00 | 40 | 1012.4 |
| 20260503212233 | 66 | 129 | 0.9 | 3.5 | 0.00 | 0.00 | 0.00 | 40 | 1012.4 |
| 20260503211733 | 66 | 129 | 0.9 | 6.1 | 0.00 | 0.00 | 0.00 | 40 | 1012.4 |
| 20260503210734 | 66 | 215 | 0.0 | 5.2 | 0.00 | 0.00 | 0.00 | 39 | 1012.4 |
| 20260503205733 | 65 | 111 | 0.0 | 4.3 | 0.00 | 0.00 | 0.00 | 40 | 1012.7 |
| 20260503205233 | 66 | 108 | 0.0 | 4.3 | 0.00 | 0.00 | 0.00 | 39 | 1012.8 |
| 20260503204733 | 66 | 205 | 0.0 | 4.3 | 0.00 | 0.00 | 0.00 | 39 | 1012.8 |
| 20260503204233 | 67 | 196 | 3.5 | 6.1 | 0.00 | 0.00 | 0.00 | 38 | 1012.8 |
| 20260503203733 | 67 | 230 | 0.0 | 6.1 | 0.00 | 0.00 | 0.00 | 38 | 1012.9 |
| 20260503203233 | 67 | 170 | 6.1 | 6.1 | 0.00 | 0.00 | 0.00 | 37 | 1012.9 |
| 20260503202732 | 67 | 219 | 0.0 | 3.5 | 0.00 | 0.00 | 0.00 | 36 | 1012.9 |
| 20260503201733 | 66 | 219 | 0.0 | 3.5 | 0.00 | 0.00 | 0.00 | 36 | 1013.0 |
| 20260503201232 | 66 | 274 | 0.0 | 4.3 | 0.00 | 0.00 | 0.00 | 36 | 1013.0 |
| 20260503200733 | 65 | 165 | 0.0 | 5.2 | 0.00 | 0.00 | 0.00 | 37 | 1013.1 |
| 20260503200232 | 64 | 167 | 1.7 | 5.2 | 0.00 | 0.00 | 0.00 | 37 | 1013.1 |
| 20260503195732 | 64 | 330 | 0.0 | 2.6 | 0.00 | 0.00 | 0.00 | 37 | 1013.1 |
| 20260503195232 | 64 | 330 | 0.9 | 2.6 | 0.00 | 0.00 | 0.00 | 37 | 1013.2 |
| 20260503194733 | 64 | 330 | 0.9 | 1.7 | 0.00 | 0.00 | 0.00 | 36 | 1013.2 |
| 20260503194232 | 64 | 330 | 0.0 | 3.5 | 0.00 | 0.00 | 0.00 | 36 | 1013.3 |
| 20260503193731 | 64 | 330 | 0.0 | 3.5 | 0.00 | 0.00 | 0.00 | 35 | 1013.3 |
| 20260503193232 | 65 | 332 | 0.0 | 5.2 | 0.00 | 0.00 | 0.00 | 35 | 1013.3 |
| 20260503192731 | 65 | 331 | 0.9 | 6.1 | 0.00 | 0.00 | 0.00 | 34 | 1013.3 |
| 20260503192231 | 64 | 326 | 4.3 | 6.1 | 0.00 | 0.00 | 0.00 | 34 | 1013.4 |
| 20260503191733 | 64 | 342 | 3.5 | 5.2 | 0.00 | 0.00 | 0.00 | 33 | 1013.5 |
| 20260503190231 | 62 | 313 | 2.6 | 4.3 | 0.00 | 0.00 | 0.00 | 34 | 1013.7 |
| 20260503185731 | 62 | 313 | 0.0 | 6.1 | 0.00 | 0.00 | 0.00 | 33 | 1013.7 |
| 20260503185231 | 61 | 311 | 1.7 | 6.1 | 0.00 | 0.00 | 0.00 | 33 | 1013.7 |
| 20260503184731 | 61 | 313 | 1.7 | 4.3 | 0.00 | 0.00 | 0.00 | 33 | 1013.7 |
| 20260503184233 | 61 | 314 | 0.9 | 6.1 | 0.00 | 0.00 | 0.00 | 33 | 1013.7 |
| 20260503183731 | 61 | 313 | 1.7 | 6.1 | 0.00 | 0.00 | 0.00 | 32 | 1013.7 |
| 20260503183231 | 61 | 315 | 0.0 | 6.1 | 0.00 | 0.00 | 0.00 | 31 | 1013.7 |
| 20260503182731 | 61 | 284 | 0.0 | 6.1 | 0.00 | 0.00 | 0.00 | 31 | 1013.7 |
| 20260503182230 | 60 | 282 | 2.6 | 8.7 | 0.00 | 0.00 | 0.00 | 31 | 1013.7 |
| 20260503181730 | 60 | 307 | 2.6 | 8.7 | 0.00 | 0.00 | 0.00 | 30 | 1013.7 |
| 20260503180230 | 58 | 282 | 0.0 | 5.2 | 0.00 | 0.00 | 0.00 | 29 | 1013.6 |
| 20260503175731 | 58 | 282 | 0.0 | 5.2 | 0.00 | 0.00 | 0.00 | 29 | 1013.6 |
| 20260503174730 | 58 | 257 | 0.0 | 1.7 | 0.00 | 0.00 | 0.00 | 28 | 1013.6 |
| 20260503174230 | 58 | 259 | 0.0 | 4.3 | 0.00 | 0.00 | 0.00 | 28 | 1013.6 |
| 20260503173730 | 58 | 257 | 0.0 | 4.3 | 0.00 | 0.00 | 0.00 | 28 | 1013.6 |
| 20260503173230 | 58 | 247 | 0.0 | 2.6 | 0.00 | 0.00 | 0.00 | 27 | 1013.6 |
| 20260503172229 | 58 | 246 | 0.0 | 0.0 | 0.00 | 0.00 | 0.00 | 26 | 1013.6 |
| 20260503171729 | 58 | 246 | 0.0 | 0.0 | 0.00 | 0.00 | 0.00 | 26 | 1013.6 |
| 20260503171229 | 58 | 246 | 0.0 | 2.6 | 0.00 | 0.00 | 0.00 | 25 | 1013.6 |
| 20260503170729 | 58 | 246 | 0.0 | 2.6 | 0.00 | 0.00 | 0.00 | 25 | 1013.4 |
| 20260503170230 | 58 | 327 | 1.7 | 2.6 | 0.00 | 0.00 | 0.00 | 25 | 1013.4 |
| 20260503150227 | 56 | 327 | 0.0 | 1.7 | 0.00 | 0.00 | 0.00 | 14 | 1012.6 |
| 20260503140227 | 56 | 327 | 0.0 | 0.0 | 0.00 | 0.00 | 0.00 | 15 | 1012.1 |
| 20260503131226 | 56 | 327 | 0.0 | 0.0 | 0.00 | 0.00 | 0.00 | 16 | 1011.5 |
| 20260503130726 | 56 | 327 | 0.0 | 0.0 | 0.00 | 0.00 | 0.00 | 16 | 1011.5 |
| 20260503130226 | 56 | 327 | 0.0 | 0.0 | 0.00 | 0.00 | 0.00 | 16 | 1011.4 |
| 20260503110724 | 56 | 327 | 0.0 | 0.0 | 0.00 | 0.00 | 0.00 | 19 | 1011.5 |
| 20260503110224 | 56 | 327 | 0.0 | 0.0 | 0.00 | 0.00 | 0.00 | 19 | 1011.6 |
| 20260503090222 | 56 | 327 | 0.0 | 0.0 | 0.00 | 0.00 | 0.00 | 23 | 1011.9 |
| 20260503081222 | 56 | 327 | 0.0 | 0.0 | 0.00 | 0.00 | 0.00 | 24 | 1012.2 |
| 20260503080221 | 56 | 327 | 0.0 | 0.0 | 0.00 | 0.00 | 0.00 | 25 | 1012.3 |
| 20260503072721 | 56 | 327 | 0.0 | 0.0 | 0.00 | 0.00 | 0.00 | 24 | 1012.2 |
| 20260503071721 | 56 | 327 | 0.0 | 0.0 | 0.00 | 0.00 | 0.00 | 24 | 1012.1 |
| 20260503071221 | 56 | 327 | 0.0 | 0.0 | 0.00 | 0.00 | 0.00 | 23 | 1012.1 |
| 20260503070721 | 56 | 327 | 0.0 | 0.0 | 0.00 | 0.00 | 0.00 | 23 | 1012.0 |
| 20260503070251 | 56 | 327 | 0.0 | 0.0 | 0.00 | 0.00 | 0.00 | 22 | 1012.1 |
| 20260503054749 | 54 | 327 | 0.0 | 0.0 | 0.00 | 0.00 | 0.00 | 22 | 1011.5 |
| 20260503053750 | 53 | 327 | 0.0 | 0.0 | 0.00 | 0.00 | 0.00 | 23 | 1011.4 |
| 20260503053250 | 53 | 327 | 0.0 | 0.0 | 0.00 | 0.00 | 0.00 | 24 | 1011.2 |
| 20260503052750 | 53 | 327 | 0.0 | 0.0 | 0.00 | 0.00 | 0.00 | 25 | 1011.1 |
| 20260503052249 | 53 | 327 | 0.0 | 0.0 | 0.00 | 0.00 | 0.00 | 26 | 1011.1 |
| 20260503051750 | 53 | 327 | 0.0 | 0.0 | 0.00 | 0.00 | 0.00 | 26 | 1011.1 |
| 20260503051250 | 54 | 327 | 0.0 | 0.0 | 0.00 | 0.00 | 0.00 | 27 | 1011.2 |
| 20260503050749 | 54 | 327 | 0.0 | 0.0 | 0.00 | 0.00 | 0.00 | 27 | 1011.2 |
| 20260503050249 | 54 | 327 | 0.0 | 0.0 | 0.00 | 0.00 | 0.00 | 27 | 1011.2 |
| 20260503045749 | 54 | 327 | 0.0 | 0.0 | 0.00 | 0.00 | 0.00 | 27 | 1011.1 |
| 20260503044749 | 54 | 327 | 0.0 | 0.0 | 0.00 | 0.00 | 0.00 | 28 | 1011.1 |
| 20260503044249 | 55 | 327 | 0.0 | 0.0 | 0.00 | 0.00 | 0.00 | 29 | 1011.1 |
| 20260503043749 | 55 | 327 | 0.0 | 0.0 | 0.00 | 0.00 | 0.00 | 29 | 1011.0 |
| 20260503043249 | 55 | 327 | 0.0 | 0.0 | 0.00 | 0.00 | 0.00 | 29 | 1011.0 |
| 20260503042749 | 55 | 327 | 0.0 | 0.0 | 0.00 | 0.00 | 0.00 | 29 | 1010.9 |
| 20260503042248 | 56 | 327 | 0.0 | 0.0 | 0.00 | 0.00 | 0.00 | 30 | 1011.0 |
| 20260503041748 | 56 | 327 | 0.0 | 0.0 | 0.00 | 0.00 | 0.00 | 30 | 1010.9 |
| 20260503041249 | 56 | 327 | 0.0 | 0.0 | 0.00 | 0.00 | 0.00 | 30 | 1010.9 |
| 20260503040748 | 56 | 327 | 0.0 | 0.0 | 0.00 | 0.00 | 0.00 | 30 | 1010.9 |
| 20260503040248 | 56 | 327 | 0.0 | 0.0 | 0.00 | 0.00 | 0.00 | 30 | 1010.8 |
| 20260503035748 | 56 | 327 | 0.0 | 0.0 | 0.00 | 0.00 | 0.00 | 31 | 1010.8 |
| 20260503035248 | 56 | 327 | 0.0 | 0.9 | 0.00 | 0.00 | 0.00 | 31 | 1010.8 |
| 20260503034748 | 56 | 327 | 0.0 | 1.7 | 0.00 | 0.00 | 0.00 | 32 | 1010.7 |
| 20260503034248 | 57 | 327 | 0.0 | 2.6 | 0.00 | 0.00 | 0.00 | 32 | 1010.5 |
| 20260503033748 | 57 | 327 | 0.0 | 5.2 | 0.00 | 0.00 | 0.00 | 32 | 1010.5 |
| 20260503033248 | 57 | 327 | 1.7 | 5.2 | 0.00 | 0.00 | 0.00 | 33 | 1010.4 |
| 20260503032748 | 57 | 281 | 0.0 | 5.2 | 0.00 | 0.00 | 0.00 | 34 | 1010.4 |
| 20260503032247 | 58 | 288 | 0.9 | 5.2 | 0.00 | 0.00 | 0.00 | 35 | 1010.5 |
| 20260503031748 | 58 | 280 | 0.0 | 3.5 | 0.00 | 0.00 | 0.00 | 35 | 1010.4 |
| 20260503030747 | 59 | 309 | 0.0 | 5.2 | 0.00 | 0.00 | 0.00 | 37 | 1010.2 |
| 20260503030247 | 59 | 360 | 0.0 | 7.8 | 0.00 | 0.00 | 0.00 | 37 | 1010.2 |
| 20260503025747 | 59 | 280 | 0.0 | 7.8 | 0.00 | 0.00 | 0.00 | 38 | 1010.0 |
| 20260503025247 | 60 | 310 | 0.0 | 5.2 | 0.00 | 0.00 | 0.00 | 39 | 1009.9 |
| 20260503024747 | 60 | 308 | 0.0 | 5.2 | 0.00 | 0.00 | 0.00 | 40 | 1009.9 |
| 20260503024247 | 60 | 309 | 0.0 | 5.2 | 0.00 | 0.00 | 0.00 | 41 | 1009.8 |
| 20260503023747 | 61 | 265 | 0.9 | 4.3 | 0.00 | 0.00 | 0.00 | 41 | 1009.7 |
| 20260503023247 | 61 | 313 | 1.7 | 5.2 | 0.00 | 0.00 | 0.00 | 42 | 1009.6 |
| 20260503022747 | 62 | 314 | 0.0 | 6.1 | 0.00 | 0.00 | 0.00 | 43 | 1009.7 |
| 20260503022247 | 62 | 311 | 0.0 | 6.1 | 0.00 | 0.00 | 0.00 | 43 | 1009.7 |
| 20260503021747 | 63 | 248 | 1.7 | 6.1 | 0.00 | 0.00 | 0.00 | 44 | 1009.7 |
| 20260503021246 | 63 | 262 | 0.0 | 6.1 | 0.00 | 0.00 | 0.00 | 44 | 1009.6 |
| 20260503020747 | 63 | 235 | 1.7 | 4.3 | 0.00 | 0.00 | 0.00 | 45 | 1009.6 |
| 20260503020246 | 64 | 271 | 0.0 | 4.3 | 0.00 | 0.00 | 0.00 | 46 | 1009.6 |
| 20260503015746 | 64 | 265 | 0.0 | 6.1 | 0.00 | 0.00 | 0.00 | 46 | 1009.6 |
| 20260503015247 | 65 | 251 | 3.5 | 7.0 | 0.00 | 0.00 | 0.00 | 46 | 1009.6 |
| 20260503014746 | 66 | 315 | 3.5 | 7.0 | 0.00 | 0.00 | 0.00 | 47 | 1009.7 |
| 20260503014246 | 67 | 296 | 0.0 | 7.8 | 0.00 | 0.00 | 0.00 | 47 | 1009.7 |
| 20260503013746 | 67 | 226 | 2.6 | 9.6 | 0.00 | 0.00 | 0.00 | 47 | 1009.7 |
| 20260503013246 | 68 | 267 | 0.0 | 9.6 | 0.00 | 0.00 | 0.00 | 46 | 1009.6 |
| 20260503012747 | 69 | 260 | 0.0 | 11.3 | 0.00 | 0.00 | 0.00 | 46 | 1009.7 |
| 20260503012246 | 70 | 321 | 0.0 | 11.3 | 0.00 | 0.00 | 0.00 | 45 | 1009.6 |
| 20260503011746 | 70 | 302 | 1.7 | 8.7 | 0.00 | 0.00 | 0.00 | 45 | 1009.7 |
| 20260503011246 | 71 | 293 | 5.2 | 8.7 | 0.00 | 0.00 | 0.00 | 45 | 1009.7 |
| 20260503010746 | 71 | 302 | 0.0 | 7.0 | 0.00 | 0.00 | 0.00 | 45 | 1009.7 |
| 20260503010246 | 72 | 277 | 2.6 | 6.1 | 0.00 | 0.00 | 0.00 | 44 | 1009.8 |
| 20260503005746 | 73 | 314 | 2.6 | 7.8 | 0.00 | 0.00 | 0.00 | 44 | 1009.8 |
| 20260503004745 | 74 | 319 | 1.7 | 12.2 | 0.00 | 0.00 | 0.00 | 43 | 1009.7 |
| 20260503004246 | 74 | 250 | 0.9 | 12.2 | 0.00 | 0.00 | 0.00 | 43 | 1009.7 |
| 20260503003745 | 75 | 232 | 0.0 | 14.8 | 0.00 | 0.00 | 0.00 | 42 | 1009.6 |
| 20260503003245 | 76 | 292 | 4.3 | 14.8 | 0.00 | 0.00 | 0.00 | 42 | 1009.8 |
| 20260503002745 | 77 | 283 | 0.0 | 6.1 | 0.00 | 0.00 | 0.00 | 41 | 1009.7 |
| 20260503002245 | 77 | 292 | 0.0 | 6.1 | 0.00 | 0.00 | 0.00 | 40 | 1009.8 |
| 20260503001745 | 78 | 311 | 0.0 | 9.6 | 0.00 | 0.00 | 0.00 | 40 | 1009.8 |
| 20260503000745 | 78 | 315 | 2.6 | 7.8 | 0.00 | 0.00 | 0.00 | 40 | 1009.8 |
| 20260503000247 | 78 | 280 | 1.7 | 7.8 | 0.00 | 0.00 | 0.00 | 39 | 1009.8 |
| 20260502235745 | 78 | 316 | 0.9 | 7.8 | 0.00 | 0.00 | 0.00 | 39 | 1009.9 |
| 20260502235245 | 78 | 304 | 0.0 | 6.1 | 0.00 | 0.00 | 0.00 | 39 | 1009.9 |
| 20260502234745 | 79 | 234 | 0.9 | 3.5 | 0.00 | 0.00 | 0.00 | 39 | 1009.9 |
| 20260502234244 | 79 | 288 | 0.0 | 7.0 | 0.00 | 0.00 | 0.00 | 38 | 1010.0 |
| 20260502233745 | 78 | 315 | 2.6 | 7.0 | 0.00 | 0.00 | 0.00 | 38 | 1010.0 |
| 20260502233245 | 78 | 308 | 2.6 | 6.1 | 0.00 | 0.00 | 0.00 | 38 | 1009.9 |
| 20260502232745 | 78 | 222 | 1.7 | 4.3 | 0.00 | 0.00 | 0.00 | 38 | 1010.1 |
| 20260502232245 | 78 | 219 | 0.0 | 4.3 | 0.00 | 0.00 | 0.00 | 37 | 1010.0 |
| 20260502231744 | 78 | 215 | 1.7 | 6.1 | 0.00 | 0.00 | 0.00 | 37 | 1010.0 |
| 20260502231244 | 77 | 307 | 0.0 | 7.8 | 0.00 | 0.00 | 0.00 | 37 | 1010.1 |
| 20260502230244 | 77 | 279 | 0.0 | 5.2 | 0.00 | 0.00 | 0.00 | 37 | 1010.4 |
| 20260502225744 | 77 | 277 | 2.6 | 6.1 | 0.00 | 0.00 | 0.00 | 36 | 1010.5 |
| 20260502225244 | 76 | 313 | 3.5 | 6.1 | 0.00 | 0.00 | 0.00 | 36 | 1010.5 |
| 20260502224744 | 76 | 313 | 0.0 | 6.1 | 0.00 | 0.00 | 0.00 | 36 | 1010.6 |
| 20260502224244 | 75 | 315 | 4.3 | 6.1 | 0.00 | 0.00 | 0.00 | 37 | 1010.8 |
| 20260502223744 | 74 | 180 | 0.0 | 4.3 | 0.00 | 0.00 | 0.00 | 37 | 1010.7 |
| 20260502223243 | 74 | 265 | 0.9 | 4.3 | 0.00 | 0.00 | 0.00 | 37 | 1010.9 |